Location: *
(37.5724°S, 58.0067°E)
Time: 00:10:30
(UTC+00:00)

H-2A ROCKET BODY - Pass Details

Date: 25 January 2021
Orbit: 216 x 15034 km, 28.6° (Epoch: 06 March)

Event Time Altitude Azimuth Distance (km) Brightness Sun altitude
Rises 18:21:10 0° 322° (NW) 10,193 7.5 -27.1°
Reaches altitude 10° 18:27:33 10° 327° (NNW) 10,509 7.5 -27.7°
Maximum altitude 20:20:55 65° 37° (NE) 15,382 8.1 -33.7°
Drops below altitude 10° 21:46:14 10° 94° (E) 9,714 7.9 -30.2°
Sets 21:51:25 0° 96° (E) 9,598 8.0 -29.8°
